TimeEET,TemperatureF,Dew PointF,Humidity,Sea Level PressureIn,VisibilityMPH,Wind Direction,Wind SpeedMPH,Gust SpeedMPH,PrecipitationIn,Events,Conditions,WindDirDegrees,DateUTC
12:20 AM,50.0,48.2,94,30.09,-9999.0,ENE,5.8,-,N/A,,Clear,70,2013-02-23 22:20:00
12:50 AM,50.0,48.2,94,30.09,-9999.0,NE,5.8,-,N/A,,Clear,50,2013-02-23 22:50:00
1:20 AM,50.0,48.2,94,30.12,-9999.0,NE,3.5,-,N/A,,Clear,50,2013-02-23 23:20:00
1:50 AM,50.0,50.0,100,30.12,-9999.0,Variable,1.2,-,N/A,,Clear,0,2013-02-23 23:50:00
2:00 AM,50,49,95,30.14,6,NNE,1.2,,,,,30,2013-02-24 00:00:00
2:20 AM,48.2,48.2,100,30.12,-9999.0,East,8.1,-,N/A,,Clear,90,2013-02-24 00:20:00
2:50 AM,48.2,46.4,93,30.12,5.0,East,5.8,-,N/A,,Unknown,90,2013-02-24 00:50:00
3:20 AM,48.2,48.2,100,30.12,5.0,North,6.9,-,N/A,,Unknown,10,2013-02-24 01:20:00
3:50 AM,48.2,48.2,100,30.12,5.0,NNE,5.8,-,N/A,,Unknown,30,2013-02-24 01:50:00
4:20 AM,48.2,46.4,93,30.12,-9999.0,ENE,4.6,-,N/A,,Clear,60,2013-02-24 02:20:00
4:50 AM,48.2,46.4,93,30.15,-9999.0,ENE,5.8,-,N/A,,Clear,70,2013-02-24 02:50:00
5:20 AM,46.4,46.4,100,30.15,-9999.0,East,5.8,-,N/A,,Clear,80,2013-02-24 03:20:00
5:50 AM,44.6,44.6,100,30.15,6.2,ENE,8.1,-,N/A,,Unknown,70,2013-02-24 03:50:00
6:20 AM,44.6,44.6,100,30.15,-9999.0,NNE,5.8,-,N/A,,Clear,30,2013-02-24 04:20:00
6:50 AM,46.4,44.6,93,30.15,-9999.0,ENE,6.9,-,N/A,,Clear,60,2013-02-24 04:50:00
7:20 AM,46.4,46.4,100,30.15,-9999.0,NE,5.8,-,N/A,,Clear,50,2013-02-24 05:20:00
7:50 AM,48.2,46.4,93,30.18,-9999.0,NE,5.8,-,N/A,,Clear,40,2013-02-24 05:50:00
8:00 AM,48,47,93,30.19,6,NE,5.8,,,,Clear,40,2013-02-24 06:00:00
8:20 AM,50.0,48.2,94,30.18,6.2,NE,5.8,-,N/A,,Mostly Cloudy,50,2013-02-24 06:20:00
8:50 AM,51.8,48.2,88,30.18,6.2,ENE,6.9,-,N/A,,Mostly Cloudy,60,2013-02-24 06:50:00
9:20 AM,53.6,50.0,88,30.18,6.2,ENE,5.8,-,N/A,,Mostly Cloudy,60,2013-02-24 07:20:00
9:50 AM,57.2,50.0,77,30.21,6.2,NE,3.5,-,N/A,,Mostly Cloudy,50,2013-02-24 07:50:00
10:20 AM,57.2,50.0,77,30.21,6.2,ENE,3.5,-,N/A,,Mostly Cloudy,70,2013-02-24 08:20:00
10:50 AM,60.8,51.8,72,30.21,6.2,Variable,2.3,-,N/A,,Mostly Cloudy,0,2013-02-24 08:50:00
11:20 AM,60.8,53.6,77,30.21,6.2,SSW,8.1,-,N/A,,Mostly Cloudy,200,2013-02-24 09:20:00
11:50 AM,62.6,50.0,63,30.21,6.2,SSW,5.8,-,N/A,,Mostly Cloudy,210,2013-02-24 09:50:00
12:20 PM,62.6,51.8,68,30.21,6.2,SW,5.8,-,N/A,,Mostly Cloudy,230,2013-02-24 10:20:00
12:50 PM,62.6,51.8,68,30.21,6.2,SSW,6.9,-,N/A,,Mostly Cloudy,210,2013-02-24 10:50:00
1:20 PM,62.6,53.6,72,30.18,6.2,SSW,9.2,-,N/A,,Mostly Cloudy,210,2013-02-24 11:20:00
1:50 PM,62.6,55.4,77,30.18,6.2,SW,11.5,-,N/A,,Mostly Cloudy,220,2013-02-24 11:50:00
2:00 PM,63,55,67,30.21,6,SW,11.5,,,,Scattered Clouds,220,2013-02-24 12:00:00
2:20 PM,62.6,53.6,72,30.21,6.2,SSW,11.5,-,N/A,,Mostly Cloudy,210,2013-02-24 12:20:00
2:50 PM,62.6,53.6,72,30.21,6.2,SSW,11.5,-,N/A,,Mostly Cloudy,210,2013-02-24 12:50:00
3:20 PM,62.6,53.6,72,30.21,6.2,SW,10.4,-,N/A,,Mostly Cloudy,220,2013-02-24 13:20:00
3:50 PM,62.6,53.6,72,30.21,6.2,SW,8.1,-,N/A,,Mostly Cloudy,220,2013-02-24 13:50:00
4:20 PM,62.6,55.4,77,30.21,6.2,SW,6.9,-,N/A,,Mostly Cloudy,220,2013-02-24 14:20:00
4:50 PM,60.8,53.6,77,30.21,6.2,SW,4.6,-,N/A,,Mostly Cloudy,220,2013-02-24 14:50:00
5:20 PM,60.8,55.4,82,30.21,6.2,SW,4.6,-,N/A,,Mostly Cloudy,220,2013-02-24 15:20:00
5:50 PM,60.8,55.4,82,30.21,6.2,Variable,2.3,-,N/A,,Mostly Cloudy,0,2013-02-24 15:50:00
6:20 PM,59.0,55.4,88,30.21,-9999.0,NW,1.2,-,N/A,,Clear,310,2013-02-24 16:20:00
6:50 PM,57.2,53.6,88,30.21,-9999.0,East,3.5,-,N/A,,Clear,100,2013-02-24 16:50:00
7:20 PM,55.4,53.6,94,30.21,-9999.0,ESE,4.6,-,N/A,,Clear,110,2013-02-24 17:20:00
7:50 PM,55.4,53.6,94,30.24,-9999.0,NNE,3.5,-,N/A,,Clear,20,2013-02-24 17:50:00
8:00 PM,56,53,85,30.25,6,NNE,3.5,,,,Clear,20,2013-02-24 18:00:00
8:20 PM,53.6,51.8,94,30.24,-9999.0,NNE,4.6,-,N/A,,Clear,20,2013-02-24 18:20:00
8:50 PM,53.6,51.8,94,30.24,-9999.0,ENE,4.6,-,N/A,,Clear,70,2013-02-24 18:50:00
9:20 PM,53.6,51.8,94,30.24,-9999.0,NE,3.5,-,N/A,,Clear,50,2013-02-24 19:20:00
9:50 PM,51.8,51.8,100,30.24,-9999.0,North,4.6,-,N/A,,Clear,10,2013-02-24 19:50:00
10:20 PM,51.8,50.0,94,30.24,-9999.0,NNE,3.5,-,N/A,,Clear,30,2013-02-24 20:20:00
10:50 PM,50.0,48.2,94,30.24,-9999.0,ENE,4.6,-,N/A,,Clear,60,2013-02-24 20:50:00
11:20 PM,50.0,50.0,100,30.27,-9999.0,NE,6.9,-,N/A,,Clear,40,2013-02-24 21:20:00
11:50 PM,50.0,48.2,94,30.27,-9999.0,ENE,4.6,-,N/A,,Clear,60,2013-02-24 21:50:00